STARLINK-37597, 69356

Orbit data source: Space-Track

STARLINK-37597, 69356 is a payload satellite owned by SpaceX/Seattle (US) in LEO that was launched on Thu, 04 Jun 2026 UTC via an FALCON 9 launch vehicle from the Air Force Eastern Test Range (AFETR). Payload-class satellites include a variety of spacecraft equipped with specific instruments for various scientific and technological missions. These include communications satellites like Starlink; space stations such as the ISS; scientific satellites like the Hubble; Earth observation satellites from companies like Planet Labs, Umbra, and HawkEye 360; GPS; miniature CubeSats for education and research; and military/defense satellites.

Loading next visibility...
Identifier
69356, 2026-123D
Orbit
LEO
Country
Flag of USUS
Related business
Manufacturer
SpaceX/Seattle
Mission
Operational spacecraft
Bus & Motor
STARLINK V2MO, Unknown motor
Mass
575 kg wet, ~530 kg dry
Launch date (UTC)
2026-06-04 (2 months ago)
Launch vehicle
FALCON 9
Launch site
Air Force Eastern Test Range (AFETR)
Object type
Payload
Rocket body
Debris
Shape & HBR
Unknown shape, 17.7 m
Radar Cross Section
Large (>1 m²)

Expand to show TLE details & history
Last TLE update: 15 hours ago

TLE from 15 hours ago
0 STARLINK-37597
1 69356U 26123D   26202.02763189  .01181851  00000-0  70501-2 0  9991
2 69356  53.1587  73.3354 0001333 104.8512 255.2656 15.74958938  7373
Epoch: 2026-07-21T00:39Z
TLE epoch observation values (Epoch: 2026-07-21T00:39:47.395Z)
Latitude
-0°
Longitude
124.5847°
Altitude
345.893 km
Speed
7.702 km/s
True Right ascension
04h 53m 20s
True Declination
0° 00' 00"
Sunlit
Object was in daylight at epoch
Visualization orbit readout
Latitude
Unknown
Longitude
Unknown
Altitude
Unknown
Speed
Unknown
Apparent Right ascension
Unknown
Apparent Declination
Unknown
Sunlit
N/A
Visualization observer readout
Local Sidereal Time
04:55:00
Azimuth
Unknown
Elevation
Unknown
Doppler factor
Unknown
Orbital elements
Apogee altitude
345.906 km
Perigee altitude
344.113 km
Semi-major axis
6,723.146 km
Eccentricity
0.00013
Inclination
53.1587°
RAAN
73.3354°
Arg. of periapsis
104.8512°
True anomaly
255.25083°
Mean anomaly
255.2656°
Eccentric anomaly
255.25821°
Mean motion
3.93717 °/min
Orbital period
91.44 mins
BSTAR
0.0070501
Loading maneuver chart data...
Computing Atmospheric mass density...
Loading historical data...
Loading historical data...
Loading historical data...
Loading historical data...
Loading historical data...
Loading historical data...
Loading historical data...

Documentation

Showing up to 5 results
|